Flag for Germany Weather past 2 weeks in Marburg, Hesse, Germany

Now
63 °F

Overcast.


Feels Like: 63 °F
Forecast: 47 / 62 °F
Wind: 8 mph from Southwest

Location: Giessen

Current Time: Aug 22, 2014 at 4:41:26 PM

Latest Report: Aug 22, 2014 at 4:00 PM


Visibility: 38 mi

Pressure: 29.93 "Hg

Humidity: 51%

Dew point: 44 °F

Location of MarburgLocation

Historic Weather in Marburg — Graph

°F

Marburg temperature yesterday

Maximum temperature yesterday: 67 °F (at 5:00 PM)
Minimum temperature yesterday: 45 °F (at 7:00 AM)
Average temperature yesterday: 55 °F

Past Weeks' High & Low Weather Summary

 TemperatureHumidityPressure
High81 °F (Aug 8, 4:00 PM)98% (Aug 8, 5:00 AM)30.09 "Hg (Aug 8, 5:00 AM)
Low44 °F (Aug 20, 7:00 AM)38% (Aug 12, 5:00 PM)29.65 "Hg (Aug 13, 5:00 PM)
Average60 °F78%29.90 "Hg
* Reported Aug 7 3:00 PM — Aug 22 3:00 PM, Marburg, Weather by CustomWeather, © 2014

Note: Actual official high and low records may vary slightly from our data, if they occured in-between our weather recording intervals... More about our weather records

Advertising

Marburg weather history for previous 24 hours

 ConditionsComfort  
Time TempWeatherWind HumidityBarometerVisibility
3:00 PM
Aug 22
64 °FOvercast.8 mph46%29.92 "Hg43 mi
2:00 PM66 °FOvercast.8 mph45%29.92 "Hg18 mi
1:00 PM64 °FOvercast.7 mph50%29.94 "Hg40 mi
12:00 PM64 °FOvercast.3 mph55%29.95 "Hg25 mi
11:00 AM59 °FOvercast.1 mph70%29.97 "Hg22 mi
10:00 AM54 °FOvercast.2 mph77%29.98 "Hg19 mi
9:00 AM52 °FOvercast.1 mph88%29.98 "Hg11 mi
8:00 AM48 °FOvercast.No wind96%30.00 "Hg6 mi
7:00 AM46 °FOvercast.1 mph97%30.00 "Hg6 mi
6:00 AM45 °FOvercast.1 mph96%30.00 "Hg10 mi
5:00 AM46 °FFog.No wind96%30.00 "Hg3 mi
4:00 AM47 °FPassing clouds.No wind95%30.01 "Hg9 mi
3:00 AM47 °FPassing clouds.1 mph94%30.01 "Hg17 mi
2:00 AM50 °FPassing clouds.No wind90%30.01 "Hg19 mi
1:00 AM50 °FPassing clouds.1 mph88%30.02 "Hg19 mi
12:00 AM51 °FOvercast.1 mph86%30.02 "Hg25 mi
11:00 PM
Aug 21
49 °FOvercast.2 mph88%30.02 "Hg19 mi
10:00 PM54 °FOvercast.1 mph76%30.02 "Hg31 mi
9:00 PM56 °FOvercast.1 mph68%30.00 "Hg5 mi
8:00 PM61 °FOvercast.2 mph56%30.00 "Hg43 mi
7:00 PM62 °FSunny.5 mph48%29.99 "Hg43 mi
6:00 PM65 °FOvercast.6 mph43%29.99 "Hg17 mi
5:00 PM67 °FPartly sunny.7 mph40%30.00 "Hg22 mi
4:00 PM65 °FPartly sunny.6 mph40%30.01 "Hg34 mi
Weather by CustomWeather, © 2014

See weather overviewHow to use our weather pages